Weather History for KGIC - January, 2014

Change the Weather History Date:

Wednesday, January 29, 2014

  Actual Average (KLWS) Record (KLWS)
Temperature  
Mean Temperature 34 °F 37 °F  
Max Temperature 41 °F 44 °F 58 °F (1967)
Min Temperature 28 °F 31 °F -12 °F (1950)
Degree Days  
Heating Degree Days 30 28  
Month to date heating degree days 855  
Since 1 July heating degree days 3063  
Cooling Degree Days 0 0  
Month to date cooling degree days 0  
Year to date cooling degree days 0  
Moisture  
Dew Point 30 °F    
Average Humidity 79    
Maximum Humidity 94    
Minimum Humidity 64    
Precipitation  
Precipitation 0.13 in 0.03 in 0.68 in (2014)
Month to date precipitation 1.01  
Year to date precipitation 1.01  
Snow  
Snow 0.00 in 0.10 in 2.40 in (1956)
Month to date snowfall 2.3  
Since 1 July snowfall 7.6  
Snow Depth -    
Sea Level Pressure  
Sea Level Pressure 29.77 in    
Wind  
Wind Speed 12 mph (SSW)    
Max Wind Speed 29 mph    
Max Gust Speed 45 mph    
Visibility 8 miles    
Events      
T = Trace of Precipitation, MM = Missing Value Source: NWS Daily Summary

Daily Weather History Graph

Daily Weather History Graph

Search for Another Location

Airport or City:

Trip Planner

Search our weather history database for the weather conditions in past years. The results will help you decide how hot, cold, wet, or windy it might be!

Date:

Astronomy

Jan. 29, 2014 Rise Set
Actual Time 7:10 AM PST 4:45 PM PST
Civil Twilight 6:37 AM PST 5:18 PM PST
Nautical Twilight 6:01 AM PST 5:54 PM PST
Astronomical Twilight 5:26 AM PST 6:29 PM PST
Moon 5:50 AM PST (1/29) 3:51 PM PST (1/29)
Length of Visible Light 10h 40m
Length of Day
9h 35m
Waning Crescent, 2% of the Moon is Illuminated
Jan 29
Waning Crescent
Jan 30
New
Feb 6
First Quarter
Feb 14
Full
Feb 22
Last Quarter

Hourly Weather History & Observations

Time (PST) Temp. Windchill Dew Point Humidity Pressure Visibility Wind Dir Wind Speed Gust Speed Precip Events Conditions
12:15 AM 31.3 °F 23.9 °F 21.9 °F 68% 30.06 in 10.0 mi ESE 8.1 mph - N/A   Overcast
12:35 AM 31.8 °F 26.2 °F 21.0 °F 64% 30.04 in 10.0 mi ESE 5.8 mph - N/A   Overcast
12:55 AM 32.0 °F - 21.6 °F 65% 30.03 in 10.0 mi Calm Calm - N/A   Overcast
1:15 AM 31.6 °F 27.0 °F 22.5 °F 69% 30.02 in 10.0 mi ENE 4.6 mph - N/A   Overcast
1:35 AM 31.1 °F 24.5 °F 23.0 °F 72% 30.02 in 4.0 mi ENE 6.9 mph - N/A   Overcast
1:55 AM 28.9 °F 22.8 °F 24.6 °F 84% 30.00 in 1.5 mi East 5.8 mph - N/A   Overcast
2:15 AM 28.2 °F - 25.7 °F 90% 30.00 in 1.8 mi Calm Calm - 0.01 in   Overcast
2:35 AM 28.8 °F 25.0 °F 26.4 °F 91% 29.98 in 2.0 mi East 3.5 mph - 0.01 in   Overcast
2:55 AM 28.9 °F 23.9 °F 26.6 °F 91% 29.96 in 5.0 mi East 4.6 mph - 0.01 in   Overcast
3:15 AM 29.1 °F 25.4 °F 26.8 °F 91% 29.94 in 5.0 mi East 3.5 mph - 0.01 in   Overcast
3:35 AM 29.5 °F 24.5 °F 27.5 °F 92% 29.92 in 3.0 mi East 4.6 mph - 0.03 in   Overcast
3:55 AM 30.4 °F 24.5 °F 28.4 °F 92% 29.91 in 7.0 mi ENE 5.8 mph - 0.05 in   Overcast
4:15 AM 30.7 °F 24.9 °F 28.9 °F 93% 29.89 in 5.0 mi NE 5.8 mph - 0.01 in   Overcast
4:35 AM 30.6 °F 25.8 °F 28.9 °F 94% 29.87 in 4.0 mi ENE 4.6 mph - 0.03 in   Overcast
4:55 AM 31.1 °F 21.4 °F 29.3 °F 93% 29.85 in 7.0 mi NNE 12.7 mph - 0.04 in   Overcast
5:15 AM 31.1 °F 20.9 °F 29.7 °F 94% 29.83 in 2.0 mi NE 13.8 mph - N/A   Overcast
5:35 AM 31.1 °F 22.4 °F 29.7 °F 94% 29.81 in 7.0 mi NE 10.4 mph 18.4 mph N/A   Overcast
5:55 AM 31.8 °F 23.3 °F 30.4 °F 94% 29.80 in 10.0 mi NNE 10.4 mph 18.4 mph N/A   Overcast
6:15 AM 32.7 °F 26.4 °F 31.1 °F 94% 29.80 in 10.0 mi East 6.9 mph - N/A   Overcast
6:35 AM 32.9 °F 25.9 °F 30.9 °F 92% 29.79 in 10.0 mi ESE 8.1 mph - N/A   Overcast
6:55 AM 35.8 °F 27.3 °F 32.0 °F 86% 29.79 in 10.0 mi SSE 12.7 mph 26.5 mph N/A   Overcast
7:15 AM 34.7 °F 29.6 °F 31.1 °F 87% 29.77 in 10.0 mi ESE 5.8 mph 16.1 mph N/A   Overcast
7:35 AM 32.5 °F 24.2 °F 30.7 °F 93% 29.77 in 5.0 mi SE 10.4 mph - 0.01 in   Overcast
7:55 AM 32.5 °F 26.2 °F 31.1 °F 94% 29.77 in 7.0 mi SSE 6.9 mph - 0.01 in   Overcast
8:15 AM 35.6 °F 23.7 °F 32.2 °F 87% 29.77 in 7.0 mi SSW 24.2 mph 31.1 mph N/A   Overcast
8:35 AM 38.8 °F 28.3 °F 32.4 °F 78% 29.77 in 7.0 mi SSW 23.0 mph 29.9 mph N/A   Overcast
8:55 AM 38.8 °F 29.7 °F 32.9 °F 79% 29.78 in 7.0 mi SW 17.3 mph 25.3 mph N/A   Overcast
9:15 AM 39.2 °F 29.8 °F 33.3 °F 79% 29.77 in 7.0 mi SW 18.4 mph 27.6 mph 0.01 in   Overcast
9:35 AM 39.2 °F 28.3 °F 33.4 °F 80% 29.77 in 7.0 mi SW 25.3 mph 32.2 mph 0.01 in   Overcast
9:55 AM 38.8 °F 27.3 °F 33.1 °F 80% 29.79 in 7.0 mi SW 27.6 mph 35.7 mph 0.01 in   Overcast
10:15 AM 38.7 °F 27.8 °F 33.1 °F 80% 29.80 in 7.0 mi WSW 24.2 mph 39.1 mph N/A   Overcast
10:35 AM 38.7 °F 27.8 °F 33.3 °F 81% 29.79 in 7.0 mi SW 24.2 mph 39.1 mph N/A   Overcast
10:55 AM 39.2 °F 27.8 °F 33.3 °F 79% 29.78 in 10.0 mi SW 27.6 mph 39.1 mph N/A   Overcast
11:15 AM 39.9 °F 29.7 °F 32.9 °F 76% 29.77 in 10.0 mi SW 23.0 mph 35.7 mph N/A   Overcast
11:35 AM 40.5 °F 29.3 °F 32.5 °F 73% 29.76 in 10.0 mi SW 28.8 mph 39.1 mph N/A   Overcast
11:55 AM 40.5 °F 30.0 °F 32.7 °F 74% 29.75 in 10.0 mi SW 25.3 mph 44.9 mph N/A   Overcast
12:15 PM 40.6 °F 30.4 °F 32.9 °F 74% 29.75 in 10.0 mi SW 24.2 mph 41.4 mph N/A   Overcast
12:35 PM 40.6 °F 29.8 °F 32.7 °F 73% 29.73 in 10.0 mi SW 27.6 mph 36.8 mph N/A   Overcast
12:55 PM 40.8 °F 30.4 °F 32.2 °F 71% 29.73 in 10.0 mi SW 25.3 mph 36.8 mph N/A   Mostly Cloudy
1:15 PM 40.5 °F 31.2 °F 32.0 °F 72% 29.72 in 10.0 mi SW 19.6 mph 33.4 mph N/A   Scattered Clouds
1:35 PM 40.8 °F 31.7 °F 32.0 °F 71% 29.71 in 10.0 mi SW 19.6 mph 28.8 mph N/A   Scattered Clouds
1:55 PM 40.8 °F 31.4 °F 31.8 °F 70% 29.70 in 10.0 mi SW 20.7 mph 25.3 mph N/A   Clear
2:15 PM 41.0 °F 31.6 °F 31.6 °F 69% 29.68 in 10.0 mi SW 20.7 mph 27.6 mph N/A   Clear
2:35 PM 41.5 °F 33.8 °F 31.5 °F 67% 29.68 in 10.0 mi WSW 15.0 mph 27.6 mph N/A   Clear
2:55 PM 40.8 °F 35.0 °F 31.8 °F 70% 29.71 in 10.0 mi West 9.2 mph 21.9 mph N/A   Clear
3:15 PM 37.9 °F 34.4 °F 32.0 °F 79% 29.72 in 10.0 mi West 4.6 mph - N/A   Clear
3:35 PM 39.7 °F 32.3 °F 31.8 °F 73% 29.70 in 10.0 mi SW 12.7 mph 19.6 mph N/A   Clear
3:55 PM 41.2 °F 35.0 °F 31.6 °F 69% 29.71 in 10.0 mi WSW 10.4 mph 16.1 mph N/A   Scattered Clouds
4:15 PM 40.6 °F 33.0 °F 30.9 °F 68% 29.70 in 10.0 mi SW 13.8 mph - N/A   Scattered Clouds
4:35 PM 40.1 °F 33.2 °F 29.3 °F 65% 29.68 in 10.0 mi SSW 11.5 mph 16.1 mph N/A   Scattered Clouds
4:55 PM 39.7 °F 34.9 °F 29.1 °F 66% 29.67 in 10.0 mi SW 6.9 mph 16.1 mph N/A   Mostly Cloudy
5:15 PM 39.0 °F 35.7 °F 29.8 °F 70% 29.66 in 10.0 mi West 4.6 mph 16.1 mph N/A   Overcast
5:35 PM 37.9 °F 32.1 °F 30.6 °F 75% 29.66 in 10.0 mi WSW 8.1 mph - N/A   Overcast
5:55 PM 37.8 °F 31.3 °F 30.7 °F 76% 29.66 in 10.0 mi West 9.2 mph 16.1 mph N/A   Overcast
6:15 PM 37.4 °F 27.8 °F 30.7 °F 77% 29.66 in 10.0 mi SW 17.3 mph 24.2 mph N/A   Overcast
6:35 PM 37.4 °F 26.9 °F 31.1 °F 78% 29.66 in 10.0 mi SW 20.7 mph 26.5 mph N/A   Overcast
6:55 PM 37.0 °F 29.3 °F 31.8 °F 81% 29.65 in 10.0 mi WSW 11.5 mph 24.2 mph N/A   Overcast
7:15 PM 37.8 °F 27.1 °F 32.0 °F 80% 29.64 in 10.0 mi SW 21.9 mph 27.6 mph N/A   Overcast
7:35 PM 38.8 °F 28.3 °F 32.0 °F 76% 29.63 in 10.0 mi SW 23.0 mph 29.9 mph N/A   Overcast
7:55 PM 38.5 °F 28.1 °F 32.0 °F 78% 29.64 in 7.0 mi SW 21.9 mph 27.6 mph N/A   Overcast
8:15 PM 38.5 °F 27.3 °F 32.5 °F 79% 29.65 in 7.0 mi SW 25.3 mph 34.5 mph 0.01 in   Overcast
8:35 PM 37.8 °F 27.7 °F 32.5 °F 81% 29.64 in 10.0 mi SW 19.6 mph 29.9 mph 0.01 in   Overcast
8:55 PM 38.1 °F 27.1 °F 32.0 °F 79% 29.65 in 10.0 mi SW 24.2 mph 31.1 mph 0.01 in   Overcast
9:15 PM 38.5 °F 28.1 °F 32.0 °F 78% 29.64 in 10.0 mi SW 21.9 mph 29.9 mph N/A   Overcast
9:35 PM 38.7 °F 28.0 °F 31.8 °F 76% 29.65 in 10.0 mi SW 23.0 mph 31.1 mph N/A   Overcast
9:55 PM 38.5 °F 27.3 °F 32.0 °F 78% 29.65 in 10.0 mi SW 25.3 mph 33.4 mph N/A   Overcast
10:15 PM 37.9 °F 27.1 °F 32.0 °F 79% 29.65 in 10.0 mi SW 23.0 mph - N/A   Overcast
10:35 PM 37.8 °F 27.1 °F 32.0 °F 80% 29.66 in 10.0 mi SW 21.9 mph - N/A   Overcast
10:55 PM 38.1 °F 27.6 °F 31.8 °F 78% 29.67 in 10.0 mi SW 21.9 mph - N/A   Overcast
11:15 PM 38.1 °F 27.9 °F 31.8 °F 78% 29.68 in 10.0 mi SW 20.7 mph 27.6 mph N/A   Overcast
11:35 PM 37.4 °F 26.6 °F 32.0 °F 81% 29.68 in 10.0 mi SW 21.9 mph 28.8 mph N/A   Overcast
11:55 PM 37.4 °F 26.9 °F 32.0 °F 81% 29.68 in 10.0 mi SW 20.7 mph 27.6 mph N/A   Overcast